Starlink 30836

operational
NORAD ID: 58221 Int'l Des: 2023-170 Owner: SPXS Country: US Constellation: starlink
LEOCIRCULAR

About Starlink 30836

Description loading...

Live Position

Loading 3D Globe...

Upcoming Passes

Altitude History

Altitude vs Time

uPlot chart will show altitude changes over time

Two-Line Element Set

1 58221U 23170R 25350.26033259 .00000823 00000-0 76007-4 0 9993
2 58221 43.0040 288.8999 0001004 280.4790 79.5939 15.02538578117734
Epoch: Dec 16, 2025 • Age: 15 hours

Current Status

Altitude 565.4 km
Velocity 7.58 km/s
Sub-Earth Point -26.17°S, 87.52°E
Launch Date Nov 4, 2023
Age 2.1 years
Type internet

Technical Details

Classification Payload
Mass 730.00 kg
Dry Mass 700.00 kg
Total Mass 730.00 kg
Length 0.30 m
Diameter 4.10 m
Span 29.00 m
Shape Box + pan
Manufacturer SPXS
Bus Type Starlink V2M
Phase Status In Orbit
Owner/State SPXS/US

Large Constellations

Loading constellations...